Weather in Osa

Russia / Perm Krai     57°16′46″N   55°28′07″E
temp.,
°C
wind,
m/s
gust,
m/s
humid.,
%
clouds,
%
prec.,
mm/h
press.,
hPa
HPBL,
m
28 february, sun
sun2823:00−15e61189100 0.3 1006376
02:00−16e4992100 0.1 1006337
05:00−15ene41093100 0.3 1006401
08:00−15ne4993100 0.2 1006413
11:00−13ene5991100 0.4 1006500
14:00−12ene5889100 0.2 1007589
17:00−12ne5889100 0.4 1008610
20:00−14nne489399 0.1 1010323
1 march, mon
mon123:00−16ne369298 0.2 1012140
02:00−18nne339481 0.0 101464
05:00−18nne359684 0.1 1015105
08:00−20nne339687 0.0 101750
11:00−16nne249181 0.1 1018294
14:00−12nne228294 0.0 1018492
17:00−11nw228797 0.1 1018500
20:00−17wsw129697 0.0 101720
2 march, tue
tue223:00−19ssw229973 0.0 101720
02:00−20s339926 0.0 101545
05:00−20s499854 0.0 1012232
08:00−19s61393100 0.0 1009342
11:00−17s71394100 0.1 1007393
14:00−14s61194100 0.8 1005513
17:00−12s61294100 1.6 1003587
20:00−12s51294100 0.7 1001576
3 march, wed
wed323:00−11s51194100 1.1 1001473
02:00−11s4995100 0.6 999421
05:00−11sse3796100 1.0 998258
08:00−11se2496100 0.8 998189
11:00−9sw0191100 1.1 998214
14:00−6nw2287100 0.1 998420
17:00−5wnw3493100 0.1 998405
20:00−7wnw349798 0.3 999109
4 march, thu
thu423:00−9nw499297 0.4 1002216
02:00−11wnw349584 0.1 100282
05:00−15wnw229866 0.1 100423
08:00−12w2496100 0.4 1005112
11:00−11w359499 0.5 1005294
14:00−8wsw469099 0.0 1005528
17:00−7sw4888100 0.1 1004759
20:00−8ssw61393100 0.1 1001529